Portsmouth, NH

6:36 PM EST on December 16, 2017 (GMT -0500)
Pease International Tradeport

Weather History for KPSM - January, 2014

Change the Weather History Date:

Wednesday, January 15, 2014

  Actual Average Record
Temperature  
Mean Temperature 37 °F -  
Max Temperature 46 °F 28 °F 61 °F (1995)
Min Temperature 28 °F 13 °F -7 °F (1988)
Degree Days  
Heating Degree Days 28    
Moisture  
Dew Point 35 °F    
Average Humidity 94    
Maximum Humidity 100    
Minimum Humidity 64    
Precipitation  
Precipitation 0.00 in - - ()
Sea Level Pressure  
Sea Level Pressure 29.92 in    
Wind  
Wind Speed 4 mph (SW)    
Max Wind Speed 7 mph    
Max Gust Speed -    
Visibility 8 miles    
Events Fog    
Averages and records for this station are not official NWS values.
T = Trace of Precipitation, MM = Missing Value Source: NWS Daily Summary

Daily Weather History Graph

Daily Weather History Graph

Search for Another Location

Airport or City:

Trip Planner

Search our weather history database for the weather conditions in past years. The results will help you decide how hot, cold, wet, or windy it might be!

Date:

Astronomy

Jan. 15, 2014 Rise Set
Actual Time 7:11 AM EST 4:33 PM EST
Civil Twilight 6:40 AM EST 5:05 PM EST
Nautical Twilight 6:05 AM EST 5:40 PM EST
Astronomical Twilight 5:31 AM EST 6:14 PM EST
Moon 4:30 PM EST (1/15) 6:24 AM EST (1/15)
Length of Visible Light 10h 24m
Length of Day
9h 21m
Full, 100% of the Moon is Illuminated
Jan 15
Full
Jan 15
Full
Jan 24
Last Quarter
Jan 30
New
Feb 6
First Quarter

Hourly Weather History & Observations

Time (EST) Temp. Windchill Dew Point Humidity Pressure Visibility Wind Dir Wind Speed Gust Speed Precip Events Conditions
12:58 AM 39.0 °F 34.8 °F 39.0 °F 100% 29.75 in 10.0 mi West 5.8 mph - 0.00 in   Partly Cloudy
1:58 AM 37.6 °F 34.0 °F 37.6 °F 100% 29.79 in 10.0 mi West 4.6 mph - N/A   Clear
2:58 AM 37.0 °F 31.6 °F 37.0 °F 100% 29.81 in 10.0 mi West 6.9 mph - N/A   Clear
3:58 AM 35.6 °F 30.7 °F 35.6 °F 100% 29.86 in 10.0 mi WSW 5.8 mph - N/A   Clear
4:58 AM 34.7 °F - 34.7 °F 100% 29.89 in 10.0 mi SW 2.3 mph - N/A   Clear
5:58 AM 31.5 °F 25.8 °F 31.5 °F 100% 29.91 in 8.0 mi SSW 5.8 mph - N/A Fog Patches of Fog
6:58 AM 33.3 °F 28.9 °F 33.3 °F 100% 29.96 in 7.0 mi SSW 4.6 mph - N/A   Partly Cloudy
7:58 AM 29.8 °F 24.9 °F 29.8 °F 100% 29.99 in 10.0 mi WSW 4.6 mph - N/A Fog Shallow Fog
8:58 AM 36.1 °F - 36.1 °F 100% 30.01 in 10.0 mi SW 1.2 mph - N/A   Partly Cloudy
9:58 AM 39.9 °F - 38.5 °F 95% 30.01 in 10.0 mi NW 1.2 mph - N/A   Partly Cloudy
10:58 AM 41.5 °F - 40.5 °F 96% 30.01 in 10.0 mi SSW 2.3 mph - N/A   Partly Cloudy
11:58 AM 45.0 °F 41.2 °F 38.7 °F 79% 29.97 in 10.0 mi SSW 6.9 mph - N/A   Scattered Clouds
12:58 PM 46.0 °F 42.5 °F 34.7 °F 65% 29.96 in 10.0 mi SSW 6.9 mph - N/A   Mostly Cloudy
1:58 PM 45.7 °F 44.4 °F 34.0 °F 64% 29.96 in 10.0 mi SSW 3.5 mph - N/A   Mostly Cloudy
2:58 PM 44.6 °F - 34.5 °F 68% 29.96 in 10.0 mi West 2.3 mph - N/A   Mostly Cloudy
3:58 PM 41.4 °F 36.8 °F 36.7 °F 83% 29.94 in 10.0 mi ESE 6.9 mph - N/A   Overcast
4:58 PM 37.8 °F 32.5 °F 37.4 °F 99% 29.95 in 10.0 mi SSE 6.9 mph - N/A   Overcast
5:58 PM 37.2 °F 33.6 °F 37.0 °F 99% 29.96 in 10.0 mi ESE 4.6 mph - N/A   Overcast
6:58 PM 36.0 °F - 35.8 °F 99% 29.96 in 10.0 mi SE 2.3 mph - N/A   Mostly Cloudy
7:58 PM 33.8 °F 30.8 °F 33.8 °F 100% 29.96 in 10.0 mi ESE 3.5 mph - N/A   Mostly Cloudy
8:58 PM 35.1 °F - 35.1 °F 100% 29.94 in 10.0 mi South 1.2 mph - N/A   Mostly Cloudy
9:58 PM 33.1 °F - 33.1 °F 100% 29.91 in 7.0 mi Calm Calm - N/A   Mostly Cloudy
10:58 PM 29.8 °F 24.9 °F 29.8 °F 100% 29.90 in 3.0 mi WSW 4.6 mph - N/A   Overcast
11:43 PM 28.4 °F 24.6 °F 28.4 °F 100% 29.88 in 0.8 mi NW 3.5 mph - N/A   Overcast
11:54 PM 28.4 °F - 28.4 °F 100% 29.89 in 0.5 mi WNW 2.3 mph - N/A Fog Light Freezing Fog
11:58 PM 29.1 °F - 29.1 °F 100% 29.91 in 0.8 mi WNW 2.3 mph - 0.00 in   Clear